Buffalo, NY

8:13 PM EST on November 22, 2019 (GMT -0500)
Buffalo Niagara International

Weather History for KBUF - September, 2019

Change the Weather History Date:

Monday, September 30, 2019

  Actual Average Record
Temperature  
Mean Temperature 59 °F 57 °F  
Max Temperature 68 °F 65 °F 85 °F (1905)
Min Temperature 50 °F 48 °F 32 °F (1991)
Degree Days  
Heating Degree Days 6 9  
Month to date heating degree days 42 136  
Since 1 July heating degree days 45 162  
Cooling Degree Days 0 1  
Month to date cooling degree days 52 53  
Year to date cooling degree days 597 540  
Growing Degree Days 9 (Base 50)    
Moisture  
Dew Point 55 °F    
Average Humidity 84    
Maximum Humidity 100    
Minimum Humidity 68    
Precipitation  
Precipitation 0.06 in 0.14 in 2.25 in (1959)
Month to date precipitation 6.28 3.90  
Year to date precipitation 34.65 29.06  
Snow  
Snow 0.00 in 0.10 in 0.00 in ()
Month to date snowfall 0.0 0.0  
Since 1 July snowfall 0.0 0.0  
Since 1 September snowfall 0.0 0.0  
Snow Depth 0.00 in    
Sea Level Pressure  
Sea Level Pressure 30.16 in    
Wind  
Wind Speed 7 mph (SE)    
Max Wind Speed 14 mph    
Max Gust Speed 17 mph    
Visibility 10 miles    
Events Rain    
T = Trace of Precipitation, MM = Missing Value Source: NWS Daily Summary

Daily Weather History Graph

Daily Weather History Graph

Search for Another Location

Airport or City:

Astronomy

Sep. 30, 2019 Rise Set
Actual Time 7:10 AM EDT 6:58 PM EDT
Civil Twilight 6:42 AM EDT 7:26 PM EDT
Nautical Twilight 6:09 AM EDT 7:59 PM EDT
Astronomical Twilight 5:36 AM EDT 8:32 PM EDT
Moon 9:14 AM EDT (9/30) 8:29 PM EDT (9/30)
Length of Visible Light 12h 44m
Length of Day
11h 47m
Waxing Crescent, 5% of the Moon is Illuminated
Sep 30
Waxing Crescent
Oct 5
First Quarter
Oct 13
Full
Oct 21
Last Quarter
Oct 27
New

Hourly Weather History & Observations

Time (EDT) Temp. Dew Point Humidity Pressure Visibility Wind Dir Wind Speed Gust Speed Precip Events Conditions
12:54 AM 53.1 °F 45.0 °F 74% 30.31 in 10.0 mi East 11.5 mph - N/A   Overcast
1:54 AM 53.1 °F 46.0 °F 77% 30.30 in 10.0 mi East 12.7 mph - 0.00 in   Overcast
2:54 AM 53.1 °F 46.0 °F 77% 30.28 in 10.0 mi East 10.4 mph - 0.00 in   Overcast
3:54 AM 52.0 °F 46.0 °F 80% 30.27 in 9.0 mi East 8.1 mph - 0.01 in Rain Light Rain
4:54 AM 50.0 °F 48.0 °F 93% 30.26 in 10.0 mi ENE 8.1 mph - 0.02 in   Overcast
5:54 AM 50.0 °F 48.9 °F 96% 30.25 in 10.0 mi ENE 10.4 mph - 0.03 in   Overcast
6:54 AM 51.1 °F 50.0 °F 96% 30.22 in 10.0 mi East 5.8 mph - 0.00 in   Mostly Cloudy
7:54 AM 52.0 °F 51.1 °F 97% 30.22 in 10.0 mi ENE 4.6 mph - N/A   Mostly Cloudy
8:54 AM 53.1 °F 52.0 °F 96% 30.23 in 10.0 mi NNE 5.8 mph - N/A   Overcast
9:54 AM 54.0 °F 52.0 °F 93% 30.22 in 10.0 mi NE 8.1 mph - N/A   Overcast
10:54 AM 57.0 °F 53.1 °F 87% 30.19 in 10.0 mi East 6.9 mph - N/A   Mostly Cloudy
11:54 AM 62.1 °F 54.0 °F 75% 30.18 in 10.0 mi Calm Calm - N/A   Mostly Cloudy
12:36 PM 63.0 °F 55.0 °F 75% 30.17 in 10.0 mi Calm Calm - N/A   Mostly Cloudy
12:54 PM 64.0 °F 55.9 °F 75% 30.17 in 10.0 mi Calm Calm - N/A   Mostly Cloudy
1:20 PM 66.0 °F 55.9 °F 70% 30.16 in 10.0 mi WSW 3.5 mph - N/A   Mostly Cloudy
1:54 PM 66.0 °F 57.0 °F 73% 30.14 in 10.0 mi Variable 4.6 mph - N/A   Mostly Cloudy
2:54 PM 68.0 °F 57.9 °F 70% 30.12 in 10.0 mi SSW 5.8 mph - N/A   Mostly Cloudy
3:54 PM 68.0 °F 60.1 °F 76% 30.11 in 10.0 mi SW 9.2 mph - N/A   Mostly Cloudy
4:54 PM 68.0 °F 60.1 °F 76% 30.09 in 10.0 mi WSW 4.6 mph - N/A   Mostly Cloudy
5:54 PM 66.9 °F 60.1 °F 79% 30.07 in 10.0 mi SSW 4.6 mph - N/A   Mostly Cloudy
6:54 PM 66.9 °F 60.1 °F 79% 30.09 in 10.0 mi WSW 3.5 mph - N/A   Mostly Cloudy
7:54 PM 66.0 °F 60.1 °F 81% 30.08 in 10.0 mi Calm Calm - N/A   Mostly Cloudy
8:54 PM 66.0 °F 61.0 °F 84% 30.07 in 10.0 mi South 5.8 mph - N/A   Mostly Cloudy
9:19 PM 64.0 °F 60.1 °F 87% 30.04 in 10.0 mi South 8.1 mph - N/A   Scattered Clouds
9:54 PM 64.0 °F 60.1 °F 87% 30.04 in 10.0 mi South 4.6 mph - N/A   Mostly Cloudy
10:38 PM 63.0 °F 60.1 °F 90% 30.04 in 10.0 mi South 4.6 mph - N/A   Partly Cloudy
10:54 PM 63.0 °F 61.0 °F 93% 30.04 in 10.0 mi South 5.8 mph - N/A   Partly Cloudy
11:54 PM 63.0 °F 62.1 °F 97% 30.02 in 10.0 mi South 6.9 mph - N/A   Scattered Clouds